• In Österreich
  • Länderverzeichnis
  • Für 7 Tage
  • Wassertemperatur
  • Satellitenkarten
  • Wetterkarte
  • News
  • Widgets
  • user-avatar
    Anmelden

    Stündliche Wetter Stepanakert

    Heute, 22 Mai, Dienstag

    Zeit Temperatur Niederschläge Wind Luftdruck Luftfeuchtigkeit
    00:00 +18°C° 0 mm 2 m/S 694 mmHg 68%
    01:00 +18°C° 0 mm 2 m/S 694 mmHg 68%
    02:00 +17°C° 0 mm 2 m/S 694 mmHg 69%
    03:00 +17°C° 0 mm 2 m/S 694 mmHg 70%
    04:00 +17°C° 0 mm 2 m/S 694 mmHg 69%
    05:00 +18°C° 0 mm 2 m/S 695 mmHg 68%
    06:00 +19°C° 0 mm 2 m/S 695 mmHg 67%
    07:00 +20°C° 0 mm 2 m/S 696 mmHg 61%
    08:00 +23°C° 0 mm 2 m/S 696 mmHg 55%
    09:00 +24°C° 0 mm 2 m/S 696 mmHg 49%
    10:00 +25°C° 0,1 mm 2 m/S 696 mmHg 47%
    11:00 +26°C° 0,1 mm 3 m/S 696 mmHg 45%
    12:00 +26°C° 0,1 mm 3 m/S 696 mmHg 44%
    13:00 +27°C° 0,2 mm 3 m/S 696 mmHg 43%
    14:00 +27°C° 0,2 mm 3 m/S 696 mmHg 43%
    15:00 +27°C° 0,2 mm 3 m/S 695 mmHg 42%
    16:00 +26°C° 0,1 mm 3 m/S 695 mmHg 45%
    17:00 +25°C° 0,1 mm 3 m/S 695 mmHg 48%
    18:00 +25°C° 0,1 mm 2 m/S 695 mmHg 50%
    19:00 +23°C° 0 mm 2 m/S 695 mmHg 53%
    20:00 +20°C° 0 mm 2 m/S 695 mmHg 56%
    21:00 +19°C° 0 mm 2 m/S 696 mmHg 59%
    22:00 +18°C° 0 mm 2 m/S 696 mmHg 58%
    23:00 +18°C° 0 mm 2 m/S 696 mmHg 57%

    Morgen, 23 Mai, Mittwoch

    Zeit Temperatur Niederschläge Wind Luftdruck Luftfeuchtigkeit
    00:00 +17°C° 0 mm 2 m/S 696 mmHg 56%
    01:00 +17°C° 0 mm 2 m/S 696 mmHg 52%
    02:00 +17°C° 0 mm 2 m/S 696 mmHg 49%
    03:00 +16°C° 0 mm 2 m/S 696 mmHg 46%
    04:00 +17°C° 0 mm 2 m/S 696 mmHg 46%
    05:00 +17°C° 0 mm 2 m/S 696 mmHg 46%
    06:00 +18°C° 0 mm 2 m/S 696 mmHg 46%
    07:00 +20°C° 0 mm 2 m/S 697 mmHg 42%
    08:00 +23°C° 0 mm 2 m/S 697 mmHg 37%
    09:00 +25°C° 0 mm 2 m/S 698 mmHg 33%
    10:00 +26°C° 0 mm 2 m/S 697 mmHg 31%
    11:00 +26°C° 0 mm 2 m/S 697 mmHg 30%
    12:00 +27°C° 0 mm 3 m/S 697 mmHg 29%
    13:00 +28°C° 0 mm 3 m/S 697 mmHg 29%
    14:00 +28°C° 0 mm 3 m/S 696 mmHg 29%
    15:00 +28°C° 0 mm 3 m/S 696 mmHg 30%
    16:00 +27°C° 0 mm 3 m/S 695 mmHg 34%
    17:00 +26°C° 0 mm 2 m/S 695 mmHg 37%
    18:00 +25°C° 0 mm 2 m/S 695 mmHg 41%
    19:00 +23°C° 0 mm 2 m/S 695 mmHg 43%
    20:00 +21°C° 0 mm 2 m/S 695 mmHg 46%
    21:00 +19°C° 0 mm 3 m/S 695 mmHg 48%
    22:00 +18°C° 0 mm 3 m/S 695 mmHg 47%
    23:00 +18°C° 0 mm 3 m/S 695 mmHg 47%

    übermorgen, 24 Mai, Donnerstag

    Zeit Temperatur Niederschläge Wind Luftdruck Luftfeuchtigkeit
    00:00 +17°C° 0 mm 3 m/S 695 mmHg 46%
    01:00 +17°C° 0 mm 3 m/S 694 mmHg 44%
    02:00 +16°C° 0 mm 2 m/S 694 mmHg 42%
    03:00 +16°C° 0 mm 2 m/S 694 mmHg 40%
    04:00 +16°C° 0 mm 2 m/S 694 mmHg 40%
    05:00 +17°C° 0 mm 2 m/S 694 mmHg 40%
    06:00 +17°C° 0 mm 2 m/S 694 mmHg 39%
    07:00 +20°C° 0 mm 2 m/S 694 mmHg 34%
    08:00 +23°C° 0 mm 2 m/S 694 mmHg 30%
    09:00 +25°C° 0 mm 2 m/S 694 mmHg 25%
    10:00 +25°C° 0 mm 2 m/S 694 mmHg 24%
    11:00 +26°C° 0 mm 2 m/S 694 mmHg 24%
    12:00 +27°C° 0 mm 2 m/S 694 mmHg 24%
    13:00 +27°C° 0 mm 2 m/S 693 mmHg 25%
    14:00 +27°C° 0 mm 3 m/S 693 mmHg 26%
    15:00 +28°C° 0 mm 3 m/S 693 mmHg 28%
    16:00 +27°C° 0 mm 2 m/S 692 mmHg 32%
    17:00 +26°C° 0 mm 2 m/S 692 mmHg 36%
    18:00 +25°C° 0 mm 2 m/S 692 mmHg 40%
    19:00 +23°C° 0 mm 2 m/S 692 mmHg 42%
    20:00 +20°C° 0 mm 2 m/S 692 mmHg 45%
    21:00 +18°C° 0 mm 2 m/S 691 mmHg 47%
    22:00 +18°C° 0 mm 2 m/S 691 mmHg 47%
    23:00 +17°C° 0 mm 2 m/S 691 mmHg 48%

    25 Mai, Freitag

    Zeit Temperatur Niederschläge Wind Luftdruck Luftfeuchtigkeit
    00:00 +17°C° 0 mm 2 m/S 691 mmHg 48%
    01:00 +16°C° 0 mm 2 m/S 691 mmHg 47%
    02:00 +16°C° 0 mm 2 m/S 691 mmHg 45%
    03:00 +16°C° 0 mm 2 m/S 690 mmHg 44%
    04:00 +16°C° 0 mm 2 m/S 691 mmHg 43%
    05:00 +17°C° 0 mm 2 m/S 691 mmHg 43%
    06:00 +18°C° 0 mm 2 m/S 691 mmHg 43%
    07:00 +20°C° 0 mm 2 m/S 691 mmHg 38%
    08:00 +23°C° 0 mm 2 m/S 691 mmHg 34%
    09:00 +25°C° 0 mm 2 m/S 692 mmHg 30%
    10:00 +26°C° 0 mm 2 m/S 691 mmHg 30%
    11:00 +27°C° 0 mm 2 m/S 691 mmHg 29%
    12:00 +28°C° 0 mm 2 m/S 691 mmHg 29%
    13:00 +28°C° 0,1 mm 3 m/S 691 mmHg 30%
    14:00 +28°C° 0,1 mm 3 m/S 690 mmHg 30%
    15:00 +28°C° 0,1 mm 3 m/S 690 mmHg 30%
    16:00 +28°C° 0,1 mm 2 m/S 690 mmHg 34%
    17:00 +27°C° 0,1 mm 2 m/S 690 mmHg 38%
    18:00 +26°C° 0,1 mm 2 m/S 690 mmHg 41%
    19:00 +24°C° 0,1 mm 2 m/S 690 mmHg 44%
    20:00 +21°C° 0,1 mm 2 m/S 690 mmHg 47%
    21:00 +19°C° 0,1 mm 2 m/S 690 mmHg 50%
    22:00 +19°C° 0 mm 2 m/S 690 mmHg 50%
    23:00 +19°C° 0 mm 2 m/S 690 mmHg 51%

    26 Mai, Samstag

    Zeit Temperatur Niederschläge Wind Luftdruck Luftfeuchtigkeit
    00:00 +18°C° 0 mm 2 m/S 690 mmHg 52%
    01:00 +18°C° 0 mm 2 m/S 690 mmHg 52%
    02:00 +17°C° 0 mm 2 m/S 690 mmHg 53%
    03:00 +17°C° 0 mm 2 m/S 690 mmHg 53%
    04:00 +18°C° 0 mm 2 m/S 690 mmHg 53%
    05:00 +20°C° 0 mm 1 m/S 691 mmHg 54%
    06:00 +20°C° 0 mm 1 m/S 691 mmHg 54%
    07:00 +21°C° 0 mm 2 m/S 692 mmHg 48%
    08:00 +24°C° 0 mm 2 m/S 692 mmHg 43%
    09:00 +25°C° 0 mm 2 m/S 692 mmHg 37%
    10:00 +26°C° 0,1 mm 2 m/S 692 mmHg 36%
    11:00 +27°C° 0,1 mm 2 m/S 692 mmHg 34%
    12:00 +28°C° 0,1 mm 3 m/S 692 mmHg 32%
    13:00 +28°C° 0,2 mm 3 m/S 692 mmHg 33%
    14:00 +28°C° 0,2 mm 2 m/S 692 mmHg 33%
    15:00 +28°C° 0,2 mm 2 m/S 692 mmHg 33%
    16:00 +27°C° 0,4 mm 2 m/S 692 mmHg 39%
    17:00 +25°C° 0,4 mm 2 m/S 693 mmHg 45%
    18:00 +24°C° 0,4 mm 2 m/S 693 mmHg 51%
    19:00 +23°C° 0,1 mm 2 m/S 693 mmHg 54%
    20:00 +21°C° 0,1 mm 2 m/S 694 mmHg 57%
    21:00 +20°C° 0,1 mm 2 m/S 694 mmHg 60%
    22:00 +19°C° 0 mm 2 m/S 695 mmHg 59%
    23:00 +19°C° 0 mm 2 m/S 695 mmHg 58%

    27 Mai, Sonntag

    Zeit Temperatur Niederschläge Wind Luftdruck Luftfeuchtigkeit
    00:00 +18°C° 0 mm 2 m/S 695 mmHg 58%
    01:00 +18°C° 0 mm 2 m/S 695 mmHg 58%
    02:00 +17°C° 0 mm 2 m/S 695 mmHg 58%
    03:00 +17°C° 0 mm 2 m/S 695 mmHg 58%
    04:00 +17°C° 0 mm 2 m/S 696 mmHg 56%
    05:00 +18°C° 0 mm 2 m/S 697 mmHg 54%
    06:00 +19°C° 0 mm 2 m/S 697 mmHg 52%
    07:00 +20°C° 0 mm 2 m/S 698 mmHg 46%
    08:00 +22°C° 0 mm 3 m/S 698 mmHg 41%
    09:00 +25°C° 0 mm 4 m/S 699 mmHg 35%
    10:00 +26°C° 0 mm 4 m/S 699 mmHg 34%
    11:00 +26°C° 0 mm 4 m/S 699 mmHg 33%
    12:00 +27°C° 0 mm 4 m/S 699 mmHg 32%
    13:00 +27°C° 0 mm 5 m/S 698 mmHg 32%
    14:00 +27°C° 0 mm 5 m/S 698 mmHg 33%
    15:00 +27°C° 0 mm 5 m/S 698 mmHg 33%
    16:00 +26°C° 0 mm 5 m/S 698 mmHg 38%
    17:00 +25°C° 0 mm 4 m/S 698 mmHg 42%
    18:00 +23°C° 0 mm 4 m/S 698 mmHg 47%
    19:00 +21°C° 0 mm 3 m/S 698 mmHg 51%
    20:00 +19°C° 0 mm 3 m/S 698 mmHg 55%
    21:00 +17°C° 0 mm 2 m/S 698 mmHg 60%
    22:00 +17°C° 0 mm 2 m/S 698 mmHg 60%
    23:00 +16°C° 0 mm 2 m/S 698 mmHg 60%
    Mehr zeigen